{"data":{"norad_id":62849,"intl_designator":"2025-019W","name":"STARLINK-32809","alt_names":[],"object_type":"PAYLOAD","status":"ACTIVE","operator":null,"country":"US","launch_date":"2025-01-27","launch_site_code":"AFETR","launch_vehicle":null,"mission":null,"orbit_class":"UNKNOWN","rcs_meters":null,"size_class":null,"mass_kg":null,"dimensions":null,"purposes":["comms"],"wikipedia_slug":null,"has_3d_model":false,"image_url":null,"decayed_at":null,"tle_current":{"epoch":"2026-05-25T01:20:15.522144Z","epoch_age_seconds":80436,"freshness":"FRESH","line1":"1 62849U 25019W   26145.05573521  .00016122  00000+0  59368-3 0  9997","line2":"2 62849  43.0007  17.4004 0001292 268.5557  91.5147 15.27603046 73936","mean_motion":15.27603046,"eccentricity":0.0001292,"inclination_deg":43.0007,"raan_deg":17.4004,"arg_perigee_deg":268.5557,"mean_anomaly_deg":91.5147,"bstar":0.00059368,"rev_number":7393,"period_min":94.265326569662,"perigee_km":482.09363256458,"apogee_km":483.86654522035,"semimajor_km":6861.1170888925,"source":"CELESTRAK","updated_at":"2026-05-25T13:38:19.782565Z"}}}